User: anonymous   Login
Location: Unspecified
(0.0000°N, 0.0000°E)
Time: 12:15:40
(UTC+00:00)
Language:

Hubble Space Telescope - Orbit

View from above orbital plane
View from above orbital plane
View from above satellite
View from above satellite

Ground track
Ground track

The orbit data is extracted from the following two-line orbital elements,

1 20580U 90037B   16269.23836235  .00000974  00000-0  49661-4 0  9990
2 20580  28.4704 317.9420 0002670 198.9400  55.2340 15.08509378250231
Epoch (UTC): 25 September 2016 05:43:14
Eccentricity: 0.0002670
inclination: 28.4704°
perigee height: 539 km
apogee height: 542 km
right ascension of ascending node: 317.9420°
argument of perigee: 198.9400°
revolutions per day: 15.08509378
mean anomaly at epoch: 55.2340°
orbit number at epoch: 25023

The dashed part of the orbit path shows where the satellite is in the earth's shadow,  

DLR